TimeEST,TemperatureF,Dew PointF,Humidity,Sea Level PressureIn,VisibilityMPH,Wind Direction,Wind SpeedMPH,Gust SpeedMPH,PrecipitationIn,Events,Conditions,WindDirDegrees,DateUTC
12:15 AM,36.5,16.7,45,30.33,10.0,South,5.8,16.1,N/A,,Clear,180,2013-01-19 05:15:00
12:35 AM,32.0,17.6,55,30.32,10.0,Calm,Calm,-,N/A,,Clear,0,2013-01-19 05:35:00
12:55 AM,26.6,18.9,73,30.32,10.0,Calm,Calm,-,N/A,,Clear,0,2013-01-19 05:55:00
1:15 AM,30.7,19.2,62,30.31,10.0,Calm,Calm,-,N/A,,Clear,0,2013-01-19 06:15:00
1:35 AM,28.9,18.0,64,30.31,10.0,Calm,Calm,-,N/A,,Clear,0,2013-01-19 06:35:00
1:55 AM,29.1,17.2,61,30.31,10.0,Calm,Calm,-,N/A,,Clear,0,2013-01-19 06:55:00
2:15 AM,27.1,17.4,67,30.32,10.0,Calm,Calm,-,N/A,,Clear,0,2013-01-19 07:15:00
2:35 AM,27.0,18.7,71,30.32,10.0,Calm,Calm,-,N/A,,Clear,0,2013-01-19 07:35:00
2:55 AM,25.5,18.9,76,30.31,10.0,Calm,Calm,-,N/A,,Clear,0,2013-01-19 07:55:00
3:15 AM,27.5,21.2,77,30.31,10.0,Calm,Calm,-,N/A,,Clear,0,2013-01-19 08:15:00
3:35 AM,30.7,20.1,65,30.30,10.0,Calm,Calm,-,N/A,,Clear,0,2013-01-19 08:35:00
3:55 AM,29.1,19.6,68,30.29,10.0,Calm,Calm,-,N/A,,Clear,0,2013-01-19 08:55:00
4:15 AM,29.1,21.6,73,30.29,10.0,Calm,Calm,-,N/A,,Clear,0,2013-01-19 09:15:00
4:35 AM,33.8,19.2,55,30.29,10.0,Calm,Calm,-,N/A,,Clear,0,2013-01-19 09:35:00
4:55 AM,30.0,20.7,68,30.29,10.0,Calm,Calm,-,N/A,,Clear,0,2013-01-19 09:55:00
5:15 AM,33.1,19.8,58,30.29,10.0,Calm,Calm,-,N/A,,Clear,0,2013-01-19 10:15:00
5:35 AM,33.8,19.6,56,30.28,10.0,Calm,Calm,-,N/A,,Clear,0,2013-01-19 10:35:00
5:55 AM,33.4,19.6,57,30.27,10.0,Calm,Calm,-,N/A,,Clear,0,2013-01-19 10:55:00
6:15 AM,33.8,18.9,54,30.27,10.0,Calm,Calm,-,N/A,,Clear,0,2013-01-19 11:15:00
6:35 AM,32.0,19.4,60,30.28,10.0,Calm,Calm,-,N/A,,Clear,0,2013-01-19 11:35:00
6:55 AM,34.7,17.2,49,30.27,10.0,Calm,Calm,-,N/A,,Clear,0,2013-01-19 11:55:00
7:55 AM,25.5,19.0,76,30.27,10.0,Calm,Calm,-,N/A,,Clear,0,2013-01-19 12:55:00
8:15 AM,28.0,21.4,76,30.27,10.0,Calm,Calm,-,N/A,,Clear,0,2013-01-19 13:15:00
8:55 AM,34.0,25.3,71,30.27,10.0,Calm,Calm,-,N/A,,Clear,0,2013-01-19 13:55:00
9:35 AM,42.8,28.2,56,30.28,10.0,Calm,Calm,-,N/A,,Clear,0,2013-01-19 14:35:00
10:35 AM,52.5,19.8,28,30.26,10.0,Calm,Calm,-,N/A,,Clear,0,2013-01-19 15:35:00
10:55 AM,54.0,18.0,24,30.25,10.0,SSW,4.6,11.5,N/A,,Clear,210,2013-01-19 15:55:00
11:15 AM,55.2,17.8,23,30.24,10.0,SSW,3.5,17.3,N/A,,Clear,200,2013-01-19 16:15:00
11:35 AM,56.5,17.6,22,30.22,10.0,Calm,Calm,-,N/A,,Clear,0,2013-01-19 16:35:00
12:15 PM,59.0,13.8,17,30.19,10.0,Calm,Calm,-,N/A,,Clear,0,2013-01-19 17:15:00
12:35 PM,59.2,12.9,16,30.17,10.0,Calm,Calm,-,N/A,,Clear,0,2013-01-19 17:35:00
12:55 PM,59.9,13.6,16,30.16,10.0,Calm,Calm,-,N/A,,Clear,0,2013-01-19 17:55:00
1:15 PM,59.7,11.8,15,30.14,10.0,Calm,Calm,-,N/A,,Clear,0,2013-01-19 18:15:00
1:35 PM,60.8,12.7,15,30.13,10.0,Calm,Calm,-,N/A,,Clear,0,2013-01-19 18:35:00
1:55 PM,61.3,14.9,16,30.12,10.0,Calm,Calm,-,N/A,,Clear,0,2013-01-19 18:55:00
2:15 PM,61.3,13.6,16,30.10,10.0,WSW,11.5,16.1,N/A,,Clear,240,2013-01-19 19:15:00
2:35 PM,61.7,13.8,15,30.09,10.0,Calm,Calm,-,N/A,,Clear,0,2013-01-19 19:35:00
2:55 PM,61.7,13.3,15,30.08,10.0,Calm,Calm,-,N/A,,Clear,0,2013-01-19 19:55:00
3:15 PM,61.7,12.7,15,30.07,10.0,Calm,Calm,-,N/A,,Clear,0,2013-01-19 20:15:00
3:35 PM,61.7,11.8,14,30.06,10.0,Calm,Calm,-,N/A,,Clear,0,2013-01-19 20:35:00
3:55 PM,61.2,12.2,15,30.06,10.0,SW,5.8,-,N/A,,Clear,220,2013-01-19 20:55:00
4:15 PM,60.8,12.2,15,30.05,10.0,SSW,6.9,-,N/A,,Clear,210,2013-01-19 21:15:00
4:35 PM,60.1,14.9,17,30.04,10.0,SSW,4.6,-,N/A,,Clear,210,2013-01-19 21:35:00
4:55 PM,59.0,16.2,19,30.03,10.0,SSW,8.1,-,N/A,,Clear,210,2013-01-19 21:55:00
5:15 PM,55.0,18.3,24,30.03,10.0,South,6.9,-,N/A,,Clear,170,2013-01-19 22:15:00
5:35 PM,53.6,19.8,27,30.03,10.0,South,6.9,-,N/A,,Clear,180,2013-01-19 22:35:00
5:55 PM,52.3,20.1,28,30.02,10.0,South,6.9,-,N/A,,Clear,170,2013-01-19 22:55:00
6:15 PM,53.2,19.6,27,30.02,10.0,South,6.9,-,N/A,,Clear,170,2013-01-19 23:15:00
6:35 PM,51.6,19.8,29,30.02,10.0,South,8.1,-,N/A,,Clear,180,2013-01-19 23:35:00
6:55 PM,51.3,19.9,29,30.02,10.0,South,10.4,-,N/A,,Clear,170,2013-01-19 23:55:00
7:15 PM,50.5,19.6,30,30.02,10.0,South,9.2,-,N/A,,Clear,170,2013-01-20 00:15:00
7:35 PM,50.0,19.6,30,30.02,10.0,South,8.1,-,N/A,,Clear,170,2013-01-20 00:35:00
7:55 PM,49.3,19.6,31,30.02,10.0,South,10.4,-,N/A,,Clear,180,2013-01-20 00:55:00
8:15 PM,49.1,19.2,31,30.02,10.0,South,12.7,18.4,N/A,,Clear,190,2013-01-20 01:15:00
8:35 PM,50.0,19.0,29,30.00,10.0,South,11.5,21.9,N/A,,Clear,180,2013-01-20 01:35:00
8:55 PM,48.6,19.2,31,30.00,10.0,South,4.6,18.4,N/A,,Clear,180,2013-01-20 01:55:00
9:15 PM,48.0,19.4,32,29.99,10.0,South,12.7,17.3,N/A,,Clear,180,2013-01-20 02:15:00
9:35 PM,49.3,18.9,30,29.98,10.0,South,12.7,20.7,N/A,,Clear,190,2013-01-20 02:35:00
9:55 PM,49.3,18.5,30,29.97,10.0,South,16.1,23.0,N/A,,Clear,190,2013-01-20 02:55:00
10:15 PM,48.9,18.3,30,29.97,10.0,South,15.0,23.0,N/A,,Clear,190,2013-01-20 03:15:00
10:35 PM,48.9,17.6,29,29.96,10.0,South,17.3,25.3,N/A,,Clear,190,2013-01-20 03:35:00
10:55 PM,48.4,16.7,28,29.95,10.0,South,12.7,-,N/A,,Clear,190,2013-01-20 03:55:00
11:15 PM,48.0,15.6,27,29.94,10.0,South,13.8,21.9,N/A,,Clear,190,2013-01-20 04:15:00
11:35 PM,48.0,14.7,26,29.92,10.0,South,17.3,24.2,N/A,,Clear,190,2013-01-20 04:35:00
11:55 PM,47.5,14.0,26,29.91,10.0,South,16.1,24.2,N/A,,Clear,180,2013-01-20 04:55:00